Regional Weather Roundup
Issued by NWS

Home | Current Version | Previous Version | Graphics & Text | Print | Product List | Glossary Off
Versions: 1 2 3 4 5 6 7 8 9 10 11 12 13 14 15 16 17 18 19 20 21 22 23 24 25 26 27 28 29 30 31 32 33 34 35 36 37 38 39 40 41 42 43 44 45 46 47 48 49 50

165
ASUS43 KTOP 231459
RWRKS

WEATHER ROUNDUP FOR KANSAS
NATIONAL WEATHER SERVICE GOODLAND KS
900 AM CST MON JAN 23 2017

NOTE:  "FAIR" INDICATES FEW OR NO CLOUDS BELOW 12,000 FEET WITH NO
SIGNIFICANT WEATHER AND/OR OBSTRUCTIONS TO VISIBILITY.

KSZ001>006-013>018-027>032-041>047-231600-
NORTHWEST KANSAS

CITY           SKY/WX    TMP DP  RH WIND       PRES   REMARKS
GOODLAND       CLEAR     31  26  82 S17       29.67F WCI  19
HAYS           MOSUNNY   35  28  75 CALM      29.84
HILL CITY      SUNNY     29  27  92 CALM      29.81F
RUSSELL        SUNNY     31  27  85 S6        29.83S
$$

KSZ061>065-074>080-084>089-231600-
SOUTHWEST KANSAS

CITY           SKY/WX    TMP DP  RH WIND       PRES   REMARKS
DODGE CITY     CLOUDY    34  30  85 S10       29.83R WCI  26
ELKHART          N/A     30  20  66 S7          N/A
GARDEN CITY    MOSUNNY   32  28  85 S8        29.78F
GREAT BEND     MOSUNNY   30  29  96 CALM      29.86S
LIBERAL          N/A     34  27  75 S9        29.77F
$$

KSZ066>073-081>083-090>101-231600-
SOUTHEAST KANSAS

CITY           SKY/WX    TMP DP  RH WIND       PRES   REMARKS
CHANUTE        SUNNY     33  30  88 CALM      29.90F
COFFEYVILLE    SUNNY     33  33 100 CALM      29.92F FOG
HUTCHINSON     SUNNY     33  29  85 CALM      29.89R
NEWTON         CLOUDY    35  32  88 SW7       29.90R
PARSONS        SUNNY     33  31  92 CALM      29.91F FOG
WICHITA INTL   PTSUNNY   34  32  92 S3        29.89R
WICHITA JABRA  CLOUDY    34  33  96 SE3       29.89R
WINFIELD       MOSUNNY   33  31  92 E3        29.90F
$$

KSZ007>012-019>026-033>040-048>060-102>105-231600-
NORTHEAST KANSAS

CITY           SKY/WX    TMP DP  RH WIND       PRES   REMARKS
CONCORDIA      SUNNY     29  28  96 CALM      29.87R
EMPORIA        CLOUDY    30  29  96 CALM      29.90R FOG
LAWRENCE       CLOUDY    28  28 100 CALM      29.92R FOG
MANHATTAN      SUNNY     28  25  88 CALM      29.90S
OLATHE IND     FOG       30  30 100 N7        29.90R VSB<1/4
OLATHE EXE     FOG       30  30 100 N5        29.90R VSB 1/4
SALINA         SUNNY     30  27  88 CALM      29.89R
TOPEKA BILLARD FOG       30  27  88 N8        29.91S VSB 1/2
TOPEKA FORBES  SUNNY     30  28  92 CALM      29.90R FOG
$$




USA.gov is the U.S. government's official web portal to all federal, state and local government web resources and services.